This is the latest recevied weather packets stored in our database for station/object SR2GKG-13. If no packets are shown the sender has not sent any weather packets the latest 10 day(s).
| Time | Temp. | Humidity | Pressure | Rain* | Wind** | Luminosity | Snow |
|---|---|---|---|---|---|---|---|
| 1777642731 | 25° C | 21% | 1013.4 hPa | - | - | - | - |
| 1777641830 | 24.44° C | 21% | 1013.6 hPa | - | - | - | - |
| 1777640930 | 23.89° C | 22% | 1013.7 hPa | - | - | - | - |
| 1777640030 | 23.33° C | 25% | 1013.9 hPa | - | - | - | - |
| 1777639130 | 23.33° C | 25% | 1014 hPa | - | - | - | - |
| 1777638230 | 23.89° C | 27% | 1014.1 hPa | - | - | - | - |
| 1777637330 | 22.78° C | 29% | 1014.3 hPa | - | - | - | - |
| 1777636430 | 23.33° C | 28% | 1014.4 hPa | - | - | - | - |
| 1777635530 | 22.78° C | 29% | 1014.4 hPa | - | - | - | - |
| 1777634630 | 22.78° C | 30% | 1014.5 hPa | - | - | - | - |
| 1777633729 | 22.78° C | 29% | 1014.6 hPa | - | - | - | - |
| 1777632829 | 22.22° C | 32% | 1014.6 hPa | - | - | - | - |
| 1777631929 | 22.22° C | 33% | 1014.7 hPa | - | - | - | - |
| 1777631029 | 21.67° C | 32% | 1014.8 hPa | - | - | - | - |
| 1777630129 | 21.11° C | 33% | 1015 hPa | - | - | - | - |
| 1777629229 | 20° C | 35% | 1015.1 hPa | - | - | - | - |
| 1777628329 | 20.56° C | 34% | 1015 hPa | - | - | - | - |
| 1777627429 | 20° C | 35% | 1015.3 hPa | - | - | - | - |
| 1777626529 | 19.44° C | 36% | 1015.4 hPa | - | - | - | - |
| 1777625629 | 18.89° C | 36% | 1015.4 hPa | - | - | - | - |
| 1777624729 | 19.44° C | 35% | 1015.5 hPa | - | - | - | - |
| 1777623828 | 18.89° C | 35% | 1015.4 hPa | - | - | - | - |
| 1777622928 | 21.67° C | 30% | 1015.4 hPa | - | - | - | - |
| 1777622028 | 19.44° C | 35% | 1015.4 hPa | - | - | - | - |
| 1777621128 | 21.11° C | 31% | 1015.4 hPa | - | - | - | - |
* Rain since midnight (hover to see other rain measurements)
** Current wind speed in m/s (hover to see current wind gust speed)